| time (UTC) | temp F | wind direction | speed MPH | gust MPH | rain 1hr in | rain 24hr in | rain mn in | humidity % | barometer mb |
| 20260510172526 | 54 | 313 | 1.0 | 2.0 | 0.00 | 0.08 | 0.08 | 86 | 1014.5 |
| 20260510171521 | 53 | 274 | 2.0 | 4.0 | 0.00 | 0.08 | 0.08 | 87 | 1014.8 |
| 20260510170535 | 54 | 287 | 2.0 | 6.0 | 0.00 | 0.08 | 0.08 | 87 | 1014.8 |
| 20260510165528 | 54 | 300 | 4.0 | 7.0 | 0.00 | 0.08 | 0.08 | 87 | 1014.9 |
| 20260510164523 | 53 | 294 | 5.0 | 9.0 | 0.01 | 0.08 | 0.08 | 90 | 1014.6 |
| 20260510163518 | 52 | 291 | 2.0 | 4.0 | 0.05 | 0.10 | 0.08 | 92 | 1014.5 |
| 20260510162613 | 51 | 278 | 5.0 | 10.0 | 0.06 | 0.10 | 0.08 | 92 | 1014.9 |
| 20260510161527 | 51 | 302 | 5.0 | 8.0 | 0.06 | 0.10 | 0.08 | 92 | 1015.0 |
| 20260510160520 | 51 | 300 | 7.0 | 11.0 | 0.07 | 0.10 | 0.08 | 91 | 1014.9 |
| 20260510155534 | 51 | 292 | 7.0 | 11.0 | 0.07 | 0.10 | 0.08 | 91 | 1015.0 |
| 20260510154529 | 52 | 288 | 11.0 | 21.0 | 0.06 | 0.09 | 0.07 | 89 | 1014.8 |
| 20260510153526 | 56 | 280 | 11.0 | 21.0 | 0.02 | 0.05 | 0.03 | 84 | 1014.5 |
| 20260510152518 | 56 | 256 | 10.0 | 17.0 | 0.01 | 0.04 | 0.02 | 84 | 1014.1 |
| 20260510151533 | 57 | 251 | 11.0 | 21.0 | 0.01 | 0.04 | 0.02 | 84 | 1014.2 |
| 20260510150548 | 58 | 263 | 14.0 | 22.0 | 0.00 | 0.03 | 0.01 | 79 | 1014.1 |
| 20260510145704 | 59 | 257 | 11.0 | 24.0 | 0.00 | 0.03 | 0.01 | 72 | 1013.9 |
| 20260510144517 | 60 | 261 | 10.0 | 21.0 | 0.00 | 0.03 | 0.01 | 73 | 1013.8 |
| 20260510143530 | 59 | 248 | 11.0 | 22.0 | 0.00 | 0.03 | 0.01 | 75 | 1013.9 |
| 20260510142524 | 59 | 236 | 10.0 | 17.0 | 0.00 | 0.03 | 0.01 | 77 | 1013.9 |
| 20260510141519 | 58 | 244 | 9.0 | 16.0 | 0.00 | 0.03 | 0.01 | 79 | 1014.1 |
| 20260510140532 | 60 | 252 | 11.0 | 19.0 | 0.00 | 0.03 | 0.01 | 67 | 1014.1 |
| 20260510135548 | 61 | 237 | 8.0 | 19.0 | 0.00 | 0.03 | 0.01 | 66 | 1014.0 |
| 20260510134521 | 61 | 225 | 9.0 | 14.0 | 0.00 | 0.03 | 0.01 | 67 | 1014.0 |
| 20260510133555 | 62 | 243 | 10.0 | 18.0 | 0.00 | 0.03 | 0.01 | 61 | 1013.9 |
| 20260510132529 | 62 | 213 | 12.0 | 23.0 | 0.00 | 0.03 | 0.01 | 61 | 1013.9 |
| 20260510131544 | 62 | 227 | 8.0 | 16.0 | 0.00 | 0.03 | 0.01 | 62 | 1014.0 |
| 20260510130518 | 61 | 231 | 11.0 | 21.0 | 0.00 | 0.03 | 0.01 | 62 | 1014.1 |
| 20260510125552 | 61 | 223 | 10.0 | 22.0 | 0.00 | 0.03 | 0.01 | 63 | 1014.1 |
| 20260510124527 | 62 | 203 | 13.0 | 24.0 | 0.00 | 0.03 | 0.01 | 62 | 1014.3 |
| 20260510123523 | 61 | 215 | 14.0 | 25.0 | 0.00 | 0.03 | 0.01 | 64 | 1014.3 |
| 20260510122517 | 61 | 215 | 10.0 | 18.0 | 0.00 | 0.03 | 0.01 | 66 | 1014.5 |
| 20260510121531 | 60 | 221 | 11.0 | 18.0 | 0.00 | 0.03 | 0.01 | 66 | 1014.6 |
| 20260510120525 | 60 | 213 | 13.0 | 21.0 | 0.00 | 0.03 | 0.01 | 67 | 1014.8 |
| 20260510115541 | 61 | 225 | 12.0 | 18.0 | 0.00 | 0.03 | 0.01 | 65 | 1014.7 |
| 20260510114555 | 60 | 225 | 9.0 | 18.0 | 0.00 | 0.03 | 0.01 | 65 | 1014.9 |
| 20260510113549 | 60 | 229 | 9.0 | 14.0 | 0.00 | 0.03 | 0.01 | 65 | 1014.9 |
| 20260510112521 | 61 | 215 | 9.0 | 16.0 | 0.00 | 0.03 | 0.01 | 64 | 1014.9 |
| 20260510111516 | 61 | 216 | 10.0 | 17.0 | 0.00 | 0.03 | 0.01 | 64 | 1015.0 |
| 20260510110531 | 61 | 208 | 10.0 | 18.0 | 0.00 | 0.03 | 0.01 | 65 | 1015.0 |
| 20260510105526 | 60 | 229 | 9.0 | 14.0 | 0.00 | 0.03 | 0.01 | 66 | 1015.0 |
| 20260510104520 | 60 | 227 | 9.0 | 16.0 | 0.00 | 0.03 | 0.01 | 66 | 1015.1 |
| 20260510103555 | 60 | 212 | 8.0 | 14.0 | 0.00 | 0.03 | 0.01 | 65 | 1015.0 |
| 20260510102527 | 60 | 227 | 6.0 | 15.0 | 0.00 | 0.03 | 0.01 | 65 | 1015.1 |
| 20260510101522 | 59 | 252 | 5.0 | 10.0 | 0.00 | 0.03 | 0.01 | 67 | 1015.1 |
| 20260510100518 | 59 | 237 | 4.0 | 8.0 | 0.00 | 0.03 | 0.01 | 69 | 1015.1 |
| 20260510095532 | 58 | 248 | 5.0 | 11.0 | 0.00 | 0.03 | 0.01 | 72 | 1015.3 |
| 20260510094526 | 58 | 211 | 6.0 | 10.0 | 0.00 | 0.04 | 0.01 | 72 | 1015.3 |
| 20260510093520 | 58 | 218 | 8.0 | 16.0 | 0.00 | 0.07 | 0.01 | 73 | 1015.3 |
| 20260510092535 | 58 | 222 | 6.0 | 9.0 | 0.00 | 0.08 | 0.01 | 73 | 1015.3 |
| 20260510091529 | 57 | 214 | 9.0 | 14.0 | 0.00 | 0.10 | 0.01 | 75 | 1015.3 |
| 20260510090522 | 56 | 206 | 5.0 | 8.0 | 0.00 | 0.10 | 0.01 | 77 | 1015.2 |
| 20260510085518 | 57 | 240 | 5.0 | 9.0 | 0.00 | 0.10 | 0.01 | 77 | 1015.3 |
| 20260510084551 | 55 | 213 | 5.0 | 9.0 | 0.00 | 0.11 | 0.01 | 81 | 1015.5 |
| 20260510083525 | 55 | 215 | 4.0 | 9.0 | 0.00 | 0.11 | 0.01 | 81 | 1015.5 |
| 20260510082520 | 55 | 196 | 3.0 | 6.0 | 0.00 | 0.11 | 0.01 | 81 | 1015.3 |
| 20260510081534 | 55 | 207 | 4.0 | 8.0 | 0.00 | 0.11 | 0.01 | 82 | 1015.4 |
| 20260510080548 | 54 | 215 | 3.0 | 7.0 | 0.00 | 0.11 | 0.01 | 85 | 1015.3 |
| 20260510075524 | 53 | 224 | 4.0 | 6.0 | 0.00 | 0.11 | 0.01 | 87 | 1015.5 |
| 20260510074559 | 53 | 212 | 5.0 | 8.0 | 0.00 | 0.11 | 0.01 | 88 | 1015.4 |
| 20260510073532 | 52 | 240 | 3.0 | 7.0 | 0.01 | 0.11 | 0.01 | 91 | 1015.3 |
| 20260510072547 | 52 | 224 | 2.0 | 4.0 | 0.01 | 0.11 | 0.01 | 92 | 1015.4 |
| 20260510071543 | 51 | 253 | 1.0 | 3.0 | 0.01 | 0.11 | 0.01 | 94 | 1015.3 |
| 20260510070557 | 50 | 254 | 2.0 | 3.0 | 0.01 | 0.11 | 0.01 | 95 | 1015.3 |
| 20260510065530 | 50 | 234 | 2.0 | 8.0 | 0.01 | 0.11 | 0.01 | 96 | 1015.2 |
| 20260510064525 | 50 | 204 | 1.0 | 4.0 | 0.01 | 0.11 | 0.01 | 96 | 1015.3 |
| 20260510063539 | 49 | 0.0 | 0.0 | 0.00 | 0.10 | 0.00 | 96 | 1015.2 | |
| 20260510062534 | 48 | 0.0 | 0.0 | 0.00 | 0.10 | 0.00 | 96 | 1015.0 | |
| 20260510061528 | 47 | 0.0 | 0.0 | 0.00 | 0.10 | 0.00 | 96 | 1015.0 | |
| 20260510060523 | 47 | 0.0 | 0.0 | 0.00 | 0.10 | 0.00 | 96 | 1015.0 | |
| 20260510055517 | 46 | 0.0 | 0.0 | 0.00 | 0.10 | 0.00 | 96 | 1015.0 | |
| 20260510054531 | 46 | 0.0 | 0.0 | 0.00 | 0.10 | 0.00 | 96 | 1015.1 | |
| 20260510053526 | 46 | 62 | 0.0 | 1.0 | 0.00 | 0.10 | 0.00 | 96 | 1014.9 |
| 20260510052539 | 46 | 0.0 | 0.0 | 0.00 | 0.10 | 0.00 | 96 | 1014.8 | |
| 20260510051554 | 45 | 0.0 | 0.0 | 0.00 | 0.10 | 0.00 | 96 | 1014.8 | |
| 20260510050527 | 45 | 0.0 | 0.0 | 0.00 | 0.10 | 0.00 | 96 | 1014.7 | |
| 20260510045523 | 45 | 0.0 | 0.0 | 0.00 | 0.10 | 0.00 | 96 | 1014.7 | |
| 20260510044538 | 45 | 73 | 1.0 | 2.0 | 0.00 | 0.10 | 0.00 | 96 | 1014.7 |
| 20260510043529 | 44 | 57 | 2.0 | 3.0 | 0.00 | 0.10 | 0.00 | 95 | 1014.7 |
| 20260510042525 | 44 | 62 | 1.0 | 2.0 | 0.00 | 0.10 | 0.00 | 95 | 1014.8 |
| 20260510041518 | 44 | 62 | 1.0 | 2.0 | 0.00 | 0.10 | 0.00 | 95 | 1014.8 |
| 20260510040532 | 45 | 0.0 | 0.0 | 0.00 | 0.10 | 0.00 | 95 | 1014.9 | |
| 20260510035529 | 44 | 62 | 0.0 | 1.0 | 0.00 | 0.10 | 0.00 | 95 | 1014.9 |
| 20260510034543 | 44 | 56 | 1.0 | 2.0 | 0.00 | 0.10 | 0.00 | 95 | 1015.0 |
| 20260510033516 | 43 | 49 | 0.0 | 1.0 | 0.00 | 0.10 | 0.00 | 95 | 1014.9 |
| 20260510032550 | 45 | 0.0 | 0.0 | 0.00 | 0.10 | 0.00 | 95 | 1015.0 | |
| 20260510031525 | 44 | 49 | 1.0 | 2.0 | 0.00 | 0.10 | 0.00 | 95 | 1015.0 |
| 20260510030519 | 43 | 51 | 2.0 | 2.0 | 0.00 | 0.10 | 0.00 | 94 | 1014.9 |
| 20260510025534 | 44 | 0.0 | 0.0 | 0.00 | 0.10 | 0.00 | 94 | 1014.9 | |
| 20260510024528 | 45 | 0.0 | 0.0 | 0.00 | 0.10 | 0.00 | 94 | 1014.8 | |
| 20260510023522 | 45 | 0.0 | 0.0 | 0.00 | 0.10 | 0.00 | 94 | 1014.9 | |
| 20260510022516 | 45 | 0.0 | 0.0 | 0.00 | 0.10 | 0.00 | 94 | 1015.1 | |
| 20260510021531 | 47 | 212 | 1.0 | 2.0 | 0.00 | 0.10 | 0.00 | 94 | 1015.0 |
| 20260510020526 | 46 | 285 | 0.0 | 1.0 | 0.00 | 0.10 | 0.00 | 94 | 1015.0 |
| 20260510015519 | 45 | 0.0 | 0.0 | 0.00 | 0.10 | 0.00 | 94 | 1015.0 | |
| 20260510014716 | 46 | 0.0 | 0.0 | 0.00 | 0.10 | 0.00 | 94 | 1015.1 | |
| 20260510013529 | 47 | 0.0 | 0.0 | 0.00 | 0.10 | 0.00 | 94 | 1015.1 | |
| 20260510012524 | 47 | 0.0 | 0.0 | 0.00 | 0.10 | 0.00 | 94 | 1015.2 | |
| 20260510011517 | 46 | 50 | 0.0 | 1.0 | 0.00 | 0.10 | 0.00 | 93 | 1015.3 |
| 20260510010531 | 46 | 51 | 1.0 | 3.0 | 0.00 | 0.10 | 0.00 | 93 | 1015.4 |
| 20260510005525 | 47 | 0.0 | 0.0 | 0.00 | 0.10 | 0.00 | 92 | 1015.4 | |
| 20260510004519 | 48 | 0.0 | 0.0 | 0.00 | 0.10 | 0.00 | 92 | 1015.6 | |
| 20260510003534 | 49 | 0.0 | 0.0 | 0.00 | 0.10 | 0.00 | 92 | 1015.7 | |
| 20260510002528 | 48 | 0.0 | 0.0 | 0.00 | 0.10 | 0.00 | 92 | 1015.7 | |
| 20260510001522 | 49 | 0.0 | 0.0 | 0.00 | 0.10 | 0.00 | 91 | 1015.8 | |
| 20260510000516 | 49 | 223 | 1.0 | 3.0 | 0.00 | 0.10 | 0.00 | 91 | 1015.9 |
| 20260509235531 | 49 | 232 | 0.0 | 1.0 | 0.00 | 0.10 | 0.00 | 91 | 1015.9 |
| 20260509234526 | 50 | 213 | 1.0 | 2.0 | 0.00 | 0.10 | 0.00 | 91 | 1016.0 |
| 20260509233540 | 50 | 149 | 0.0 | 1.0 | 0.00 | 0.10 | 0.00 | 91 | 1016.0 |
| 20260509232534 | 50 | 0.0 | 0.0 | 0.00 | 0.10 | 0.00 | 90 | 1016.0 | |
| 20260509231528 | 50 | 40 | 1.0 | 2.0 | 0.00 | 0.10 | 0.00 | 90 | 1016.0 |
| 20260509230523 | 50 | 5 | 1.0 | 2.0 | 0.00 | 0.10 | 0.00 | 89 | 1015.8 |
| 20260509225517 | 50 | 241 | 1.0 | 2.0 | 0.00 | 0.10 | 0.00 | 88 | 1015.7 |
| 20260509224532 | 51 | 250 | 2.0 | 3.0 | 0.00 | 0.10 | 0.00 | 88 | 1015.8 |
| 20260509223526 | 51 | 217 | 1.0 | 2.0 | 0.00 | 0.10 | 0.00 | 88 | 1015.6 |
| 20260509222521 | 52 | 215 | 1.0 | 2.0 | 0.00 | 0.10 | 0.00 | 88 | 1015.6 |
| 20260509221555 | 52 | 214 | 0.0 | 2.0 | 0.00 | 0.10 | 0.00 | 88 | 1015.7 |
| 20260509220530 | 52 | 215 | 0.0 | 1.0 | 0.00 | 0.10 | 0.00 | 87 | 1015.5 |
| 20260509215525 | 52 | 213 | 1.0 | 2.0 | 0.00 | 0.10 | 0.10 | 87 | 1015.6 |
| 20260509214518 | 53 | 208 | 3.0 | 6.0 | 0.00 | 0.10 | 0.10 | 86 | 1015.5 |
| 20260509213552 | 53 | 216 | 5.0 | 7.0 | 0.00 | 0.10 | 0.10 | 85 | 1015.5 |
| 20260509212527 | 54 | 226 | 5.0 | 8.0 | 0.00 | 0.10 | 0.10 | 84 | 1015.6 |
| 20260509211541 | 54 | 232 | 4.0 | 8.0 | 0.00 | 0.10 | 0.10 | 84 | 1015.4 |
| 20260509210516 | 54 | 225 | 5.0 | 9.0 | 0.00 | 0.10 | 0.10 | 84 | 1015.4 |
| 20260509205531 | 55 | 235 | 6.0 | 10.0 | 0.00 | 0.10 | 0.10 | 85 | 1015.4 |
| 20260509204547 | 55 | 236 | 4.0 | 8.0 | 0.00 | 0.10 | 0.10 | 86 | 1015.3 |
| 20260509203520 | 55 | 239 | 4.0 | 8.0 | 0.00 | 0.10 | 0.10 | 87 | 1015.1 |
| 20260509202535 | 55 | 222 | 4.0 | 6.0 | 0.00 | 0.10 | 0.10 | 87 | 1014.9 |
| 20260509201529 | 55 | 209 | 4.0 | 6.0 | 0.00 | 0.10 | 0.10 | 86 | 1014.8 |
| 20260509200543 | 55 | 209 | 3.0 | 4.0 | 0.00 | 0.10 | 0.10 | 84 | 1014.6 |
| 20260509195521 | 56 | 220 | 2.0 | 7.0 | 0.00 | 0.10 | 0.10 | 83 | 1014.5 |
| 20260509194530 | 56 | 252 | 2.0 | 6.0 | 0.00 | 0.10 | 0.10 | 81 | 1014.4 |
| 20260509193525 | 56 | 250 | 3.0 | 4.0 | 0.00 | 0.10 | 0.10 | 81 | 1014.2 |
| 20260509192519 | 57 | 253 | 5.0 | 8.0 | 0.00 | 0.10 | 0.10 | 80 | 1014.0 |
| 20260509191533 | 57 | 253 | 7.0 | 13.0 | 0.00 | 0.10 | 0.10 | 78 | 1013.9 |
| 20260509190528 | 57 | 262 | 6.0 | 19.0 | 0.00 | 0.10 | 0.10 | 83 | 1013.5 |
| 20260509185522 | 57 | 185 | 1.0 | 3.0 | 0.00 | 0.10 | 0.10 | 82 | 1013.1 |
| 20260509184537 | 57 | 181 | 1.0 | 3.0 | 0.00 | 0.10 | 0.10 | 81 | 1013.0 |
| 20260509183530 | 58 | 209 | 3.0 | 4.0 | 0.00 | 0.10 | 0.10 | 79 | 1013.1 |
| 20260509182523 | 59 | 213 | 4.0 | 7.0 | 0.00 | 0.10 | 0.10 | 76 | 1012.9 |
| 20260509181519 | 60 | 208 | 3.0 | 6.0 | 0.00 | 0.10 | 0.10 | 75 | 1012.8 |
| 20260509180533 | 60 | 211 | 4.0 | 6.0 | 0.00 | 0.10 | 0.10 | 75 | 1012.5 |
| 20260509175548 | 58 | 215 | 5.0 | 9.0 | 0.00 | 0.10 | 0.10 | 78 | 1012.6 |
| 20260509174521 | 58 | 207 | 5.0 | 9.0 | 0.00 | 0.10 | 0.10 | 80 | 1012.6 |
| 20260509173535 | 58 | 212 | 6.0 | 9.0 | 0.02 | 0.10 | 0.10 | 80 | 1012.3 |